CW2157 Weather Reports


Display with metric or nautical units.
time (UTC)temp
F
wind
direction
speed
MPH
gust
MPH
rain 1hr
in
rain 24hr
in
rain mn
in
humidity
%
barometer
mb
20260901143204 87 233 5.0 9.0 0.00 0.00 0.00 72 1014.9
20260901142705 87 228 6.0 10.0 0.00 0.00 0.00 73 1015.0
20260901142205 87 221 2.0 6.0 0.00 0.00 0.00 73 1015.0
20260901141205 87 235 6.0 7.0 0.00 0.00 0.00 74 1014.9
20260901140705 87 236 6.0 10.0 0.00 0.00 0.00 72 1014.8
20260901140205 87 228 5.0 8.0 0.00 0.00 0.00 72 1014.9
20260901135704 87 230 3.0 9.0 0.00 0.00 0.00 73 1014.9
20260901135205 87 228 8.0 12.0 0.00 0.00 0.00 74 1015.0
20260901134206 86 222 6.0 9.0 0.00 0.00 0.00 74 1015.1
20260901133705 86 230 6.0 10.0 0.00 0.00 0.00 77 1015.1
20260901132705 85 226 4.0 9.0 0.00 0.00 0.00 77 1015.4
20260901132205 85 258 6.0 10.0 0.00 0.00 0.00 77 1015.3
20260901131205 84 233 4.0 8.0 0.00 0.00 0.00 80 1015.4
20260901130705 83 232 5.0 9.0 0.00 0.00 0.00 82 1015.4
20260901130205 83 227 4.0 9.0 0.00 0.00 0.00 85 1015.4
20260901125705 82 235 5.0 6.0 0.00 0.00 0.00 86 1015.4
20260901125205 82 223 3.0 6.0 0.00 0.00 0.00 86 1015.3
20260901124705 81 219 4.0 5.0 0.00 0.00 0.00 87 1015.3
20260901123705 80 225 4.0 6.0 0.00 0.00 0.00 91 1015.3
20260901123204 79 229 6.0 7.0 0.00 0.00 0.00 92 1015.2
20260901122705 79 224 6.0 7.0 0.00 0.00 0.00 93 1015.4
20260901122205 78 226 6.0 7.0 0.00 0.00 0.00 94 1015.3
20260901121705 78 230 5.0 7.0 0.00 0.00 0.00 95 1015.4
20260901120705 78 217 5.0 7.0 0.00 0.00 0.00 95 1015.3
20260901120204 77 217 5.0 6.0 0.00 0.00 0.00 95 1015.2
20260901115205 76 213 5.0 6.0 0.00 0.00 0.00 95 1015.3
20260901114705 76 219 4.0 5.0 0.00 0.00 0.00 94 1015.4
20260901114205 75 192 3.0 3.0 0.00 0.00 0.00 94 1015.4
20260901113704 75 171 1.0 3.0 0.00 0.00 0.00 94 1015.4
20260901113205 75 171 2.0 2.0 0.00 0.00 0.00 94 1015.3
20260901112704 75 202 1.0 2.0 0.00 0.00 0.00 94 1015.2
20260901112205 75 202 1.0 3.0 0.00 0.00 0.00 94 1015.2
20260901111705 75 224 1.0 3.0 0.00 0.00 0.00 94 1015.2
20260901110705 74 145 0.0 0.0 0.00 0.00 0.00 93 1015.3
20260901110205 74 145 0.0 1.0 0.00 0.00 0.00 93 1015.3
20260901105704 74 145 0.0 0.0 0.00 0.00 0.00 93 1015.4
20260901104705 74 145 0.0 0.0 0.00 0.00 0.00 93 1015.2
20260901104204 74 145 0.0 1.0 0.00 0.00 0.00 93 1015.1
20260901103705 74 145 0.0 0.0 0.00 0.00 0.00 93 1014.9
20260901103205 75 145 0.0 1.0 0.00 0.00 0.00 93 1014.8
20260901102705 74 145 0.0 1.0 0.00 0.00 0.00 93 1014.8
20260901102204 74 145 0.0 1.0 0.00 0.00 0.00 93 1014.8
20260901101705 74 145 1.0 2.0 0.00 0.00 0.00 93 1014.7
20260901101205 74 145 0.0 1.0 0.00 0.00 0.00 92 1014.7
20260901100705 74 145 0.0 1.0 0.00 0.00 0.00 92 1014.8
20260901100205 75 145 1.0 2.0 0.00 0.00 0.00 92 1014.9
20260901095705 75 145 1.0 3.0 0.00 0.00 0.00 92 1015.0
20260901095205 75 66 1.0 2.0 0.00 0.00 0.00 92 1015.0
20260901094704 75 113 0.0 3.0 0.00 0.00 0.00 93 1015.0
20260901094205 75 217 0.0 3.0 0.00 0.00 0.00 92 1014.9
20260901093705 75 237 1.0 3.0 0.00 0.00 0.00 92 1014.9
20260901093205 75 248 1.0 3.0 0.00 0.00 0.00 92 1014.9
20260901092705 75 233 0.0 2.0 0.00 0.00 0.00 92 1015.0
20260901092205 75 271 0.0 1.0 0.00 0.00 0.00 92 1015.0
20260901091705 75 266 3.0 6.0 0.00 0.00 0.00 92 1015.0
20260901091205 75 231 0.0 1.0 0.00 0.00 0.00 92 1015.0
20260901090705 75 270 0.0 1.0 0.00 0.00 0.00 92 1015.0
20260901090204 75 270 1.0 6.0 0.00 0.00 0.00 92 1014.9
20260901085705 76 227 2.0 5.0 0.00 0.00 0.00 92 1014.8
20260901084205 76 208 0.0 1.0 0.00 0.00 0.00 92 1015.0
20260901083704 76 208 0.0 1.0 0.00 0.00 0.00 92 1015.0
20260901082705 76 213 2.0 3.0 0.00 0.00 0.00 92 1014.8
20260901082205 76 230 3.0 5.0 0.00 0.00 0.00 92 1014.8
20260901081705 76 232 2.0 5.0 0.00 0.00 0.00 92 1014.9
20260901080705 76 286 3.0 6.0 0.00 0.00 0.00 92 1015.1
20260901080205 76 241 3.0 7.0 0.00 0.00 0.00 93 1015.0
20260901075205 77 236 4.0 6.0 0.00 0.00 0.00 93 1015.1
20260901074705 77 237 4.0 6.0 0.00 0.00 0.00 93 1015.1
20260901074205 77 214 0.0 2.0 0.00 0.00 0.00 93 1015.1
20260901072705 77 237 1.0 2.0 0.00 0.00 0.00 93 1015.1
20260901072205 77 257 2.0 3.0 0.00 0.00 0.00 93 1015.2
20260901071704 77 250 0.0 2.0 0.00 0.00 0.00 93 1015.2
20260901071204 77 322 0.0 3.0 0.00 0.00 0.00 93 1015.2
20260901070705 77 238 1.0 3.0 0.00 0.00 0.00 93 1015.2
20260901070205 76 245 1.0 3.0 0.00 0.00 0.00 93 1015.3
20260901065704 76 258 0.0 1.0 0.00 0.00 0.00 93 1015.3
20260901065205 76 257 3.0 5.0 0.00 0.00 0.00 93 1015.3
20260901064705 76 209 5.0 6.0 0.00 0.00 0.00 92 1015.3
20260901063705 76 196 3.0 3.0 0.00 0.00 0.00 92 1015.3
20260901063205 76 146 0.0 2.0 0.00 0.00 0.00 92 1015.4
20260901062704 76 146 0.0 1.0 0.00 0.00 0.00 91 1015.3
20260901062205 76 146 0.0 1.0 0.00 0.00 0.00 91 1015.3
20260901061705 76 146 0.0 1.0 0.00 0.00 0.00 91 1015.4
20260901061205 76 146 0.0 1.0 0.00 0.00 0.00 91 1015.4
20260901060704 76 146 0.0 0.0 0.00 0.00 0.00 91 1015.5
20260901060205 76 146 0.0 1.0 0.00 0.00 0.00 91 1015.5
20260901055705 76 146 1.0 2.0 0.00 0.00 0.00 91 1015.5
20260901055204 76 146 1.0 2.0 0.00 0.00 0.00 91 1015.6
20260901054704 76 146 0.0 1.0 0.00 0.00 0.00 90 1015.7
20260901054204 76 146 0.0 2.0 0.00 0.00 0.00 90 1015.7
20260901053705 76 146 1.0 2.0 0.00 0.00 0.00 90 1015.9
20260901053205 76 146 0.0 1.0 0.00 0.00 0.00 90 1015.9
20260901052704 76 146 0.0 2.0 0.00 0.00 0.00 89 1015.8
20260901052205 76 146 1.0 2.0 0.00 0.00 0.00 89 1016.0
20260901051705 76 146 1.0 2.0 0.00 0.00 0.00 89 1015.9
20260901051204 76 146 1.0 2.0 0.00 0.00 0.00 89 1015.9
20260901050705 76 146 1.0 2.0 0.00 0.00 0.00 89 1016.1
20260901050204 76 146 0.0 0.0 0.00 0.00 0.00 89 1016.3
20260901045705 76 146 0.0 0.0 0.00 0.00 0.00 89 1016.4
20260901045204 77 146 0.0 0.0 0.00 0.00 0.00 88 1016.3
20260901044705 77 146 1.0 2.0 0.00 0.00 0.00 88 1016.3
20260901044204 77 146 1.0 2.0 0.00 0.00 0.00 88 1016.4
20260901043205 77 146 1.0 2.0 0.00 0.00 0.00 88 1016.4
20260901042705 77 146 1.0 2.0 0.00 0.00 0.00 88 1016.5
20260901042205 77 146 1.0 2.0 0.00 0.00 0.00 88 1016.4
20260901041704 77 146 1.0 2.0 0.00 0.00 0.00 87 1016.4
20260901041205 77 146 1.0 2.0 0.00 0.00 0.00 87 1016.4
20260901040705 77 146 1.0 2.0 0.00 0.00 0.00 87 1016.4
20260901040204 77 146 1.0 3.0 0.00 0.00 0.00 87 1016.5
20260901035705 78 146 2.0 3.0 0.00 0.00 0.00 87 1016.5
20260901035204 78 169 1.0 3.0 0.00 0.00 0.00 87 1016.5
20260901034705 78 166 1.0 2.0 0.00 0.00 0.00 87 1016.4
20260901034204 78 166 0.0 2.0 0.00 0.00 0.00 87 1016.4
20260901033704 78 136 2.0 3.0 0.00 0.00 0.00 87 1016.4
20260901033204 78 126 1.0 3.0 0.00 0.00 0.00 87 1016.3
20260901032705 78 146 2.0 3.0 0.00 0.00 0.00 87 1016.3
20260901032205 78 153 2.0 5.0 0.00 0.00 0.00 87 1016.3
20260901030705 78 164 3.0 5.0 0.00 0.00 0.00 87 1015.9
20260901030205 78 162 3.0 5.0 0.00 0.00 0.00 86 1015.9
20260901025705 78 174 2.0 5.0 0.00 0.00 0.00 86 1016.0
20260901025205 78 165 3.0 5.0 0.00 0.00 0.00 86 1016.0
20260901024704 78 194 4.0 7.0 0.00 0.00 0.00 86 1016.1
20260901024204 78 183 3.0 8.0 0.00 0.00 0.00 86 1016.0
20260901023705 78 178 3.0 7.0 0.00 0.00 0.00 86 1016.0
20260901023205 78 190 3.0 9.0 0.00 0.00 0.00 86 1016.0
20260901022704 78 172 4.0 6.0 0.00 0.00 0.00 86 1015.9
20260901022204 78 170 4.0 8.0 0.00 0.00 0.00 85 1016.0
20260901021705 78 190 5.0 8.0 0.00 0.00 0.00 85 1016.0
20260901021204 78 191 5.0 8.0 0.00 0.00 0.00 86 1016.0
20260901020705 78 169 4.0 6.0 0.00 0.00 0.00 85 1016.1
20260901020205 78 186 5.0 7.0 0.00 0.00 0.00 85 1016.2
20260901015705 78 167 5.0 8.0 0.00 0.00 0.00 85 1016.3
20260901015204 78 175 5.0 8.0 0.00 0.00 0.00 85 1016.3
20260901014705 78 185 4.0 7.0 0.00 0.00 0.00 85 1016.4
20260901014204 78 163 3.0 7.0 0.00 0.00 0.00 85 1016.5
20260901013705 78 176 5.0 7.0 0.00 0.00 0.00 85 1016.5
20260901013205 78 187 5.0 7.0 0.00 0.00 0.00 85 1016.4
20260901012705 78 178 4.0 9.0 0.00 0.00 0.00 85 1016.4
20260901011204 78 179 3.0 7.0 0.00 0.00 0.00 84 1016.3
20260901010704 78 174 3.0 8.0 0.00 0.00 0.00 85 1016.3
20260901005704 78 139 4.0 9.0 0.00 0.00 0.00 85 1016.3
20260901005204 78 159 5.0 8.0 0.00 0.00 0.00 85 1016.3
20260901004204 79 153 3.0 7.0 0.00 0.00 0.00 84 1016.4
20260901003704 79 172 2.0 6.0 0.00 0.00 0.00 84 1016.4
20260901003204 79 157 3.0 7.0 0.00 0.00 0.00 84 1016.4
20260901002705 79 120 2.0 5.0 0.00 0.00 0.00 84 1016.3
20260901002205 79 137 3.0 7.0 0.00 0.00 0.00 83 1016.2
20260901001705 79 141 2.0 3.0 0.00 0.00 0.00 83 1016.2
20260901001204 79 131 4.0 7.0 0.00 0.00 0.00 83 1016.0
20260901000704 80 168 2.0 6.0 0.00 0.00 0.00 82 1016.1
20260831235205 80 126 3.0 8.0 0.00 0.00 0.00 83 1016.1
20260831234705 80 132 3.0 8.0 0.00 0.00 0.00 83 1016.0
20260831234204 80 125 3.0 6.0 0.00 0.00 0.00 82 1016.2
20260831233704 81 96 4.0 7.0 0.00 0.00 0.00 82 1016.2
20260831233205 81 93 4.0 7.0 0.00 0.00 0.00 84 1016.2
20260831232704 81 106 5.0 13.0 0.00 0.00 0.00 83 1016.3
20260831232204 81 38 2.0 3.0 0.00 0.00 0.00 81 1016.3
20260831231705 82 58 2.0 3.0 0.00 0.00 0.00 81 1016.2
20260831231205 82 100 2.0 3.0 0.00 0.00 0.00 80 1016.3
20260831230705 82 29 0.0 2.0 0.00 0.00 0.00 80 1016.5
20260831230204 82 29 0.0 1.0 0.00 0.00 0.00 81 1016.5
20260831225704 82 29 0.0 1.0 0.00 0.00 0.00 80 1016.5
20260831225205 82 29 1.0 1.0 0.00 0.00 0.00 79 1016.4
20260831224705 83 355 0.0 1.0 0.00 0.00 0.00 79 1016.5
20260831224204 83 348 0.0 0.0 0.00 0.00 0.00 79 1016.5
20260831223704 83 348 0.0 0.0 0.00 0.00 0.00 78 1016.5
20260831223205 83 348 0.0 0.0 0.00 0.00 0.00 78 1016.4
20260831222705 83 348 0.0 0.0 0.00 0.00 0.00 78 1016.5
20260831222205 83 348 0.0 0.0 0.00 0.00 0.00 77 1016.6
20260831221704 84 348 0.0 1.0 0.00 0.00 0.00 76 1016.7
20260831221204 84 348 0.0 2.0 0.00 0.00 0.00 76 1016.8
20260831220704 84 352 1.0 3.0 0.00 0.00 0.00 75 1016.7
20260831220205 85 356 0.0 1.0 0.00 0.00 0.00 75 1016.7
20260831215705 85 348 1.0 2.0 0.00 0.00 0.00 75 1016.7
20260831215204 85 0 2.0 3.0 0.00 0.00 0.00 74 1016.7
20260831214704 85 39 2.0 3.0 0.00 0.00 0.00 74 1016.6
20260831214204 85 33 2.0 5.0 0.00 0.00 0.00 75 1016.7
20260831213704 85 49 2.0 3.0 0.00 0.00 0.00 74 1016.8
20260831211204 86 49 2.0 3.0 0.00 0.00 0.00 72 1016.6
20260831210704 87 56 2.0 3.0 0.00 0.00 0.00 71 1016.5
20260831210205 87 23 2.0 3.0 0.00 0.00 0.00 71 1016.4
20260831205705 87 263 1.0 3.0 0.00 0.00 0.00 69 1016.3
20260831205205 87 72 0.0 2.0 0.00 0.00 0.00 69 1016.3
20260831204704 87 290 1.0 3.0 0.00 0.00 0.00 69 1016.3
20260831203204 87 325 1.0 3.0 0.00 0.00 0.00 71 1016.3
20260831202704 87 29 1.0 3.0 0.00 0.00 0.00 74 1016.3
20260831202204 86 338 1.0 5.0 0.00 0.00 0.00 73 1016.3
20260831201704 86 321 3.0 5.0 0.00 0.00 0.00 73 1016.4
20260831201204 86 233 1.0 3.0 0.00 0.00 0.00 74 1016.4
20260831200204 85 305 2.0 3.0 0.00 0.00 0.00 72 1016.4
20260831195704 85 27 1.0 3.0 0.00 0.00 0.00 73 1016.4
20260831195204 85 31 1.0 3.0 0.00 0.00 0.00 75 1016.4
20260831194704 85 359 3.0 5.0 0.00 0.00 0.00 73 1016.6
20260831194205 85 37 2.0 5.0 0.00 0.00 0.00 73 1016.7
20260831193704 85 358 1.0 3.0 0.00 0.00 0.00 74 1016.8
20260831193204 86 11 3.0 5.0 0.00 0.00 0.00 70 1016.7
20260831192704 86 353 3.0 6.0 0.00 0.00 0.00 71 1016.8
20260831192204 86 14 3.0 6.0 0.00 0.00 0.00 72 1016.8
20260831191704 86 53 2.0 6.0 0.00 0.00 0.00 72 1016.8
20260831191204 87 36 2.0 5.0 0.00 0.00 0.00 72 1016.9
20260831190704 87 50 3.0 5.0 0.00 0.00 0.00 72 1017.0
20260831190205 87 32 3.0 5.0 0.00 0.00 0.00 72 1017.1
20260831185705 87 54 5.0 7.0 0.00 0.00 0.00 74 1017.0
20260831185205 87 52 3.0 6.0 0.00 0.00 0.00 74 1017.0
20260831184705 87 54 3.0 5.0 0.00 0.00 0.00 72 1017.1
20260831184204 87 11 2.0 6.0 0.00 0.00 0.00 71 1017.1
20260831183204 88 299 2.0 5.0 0.00 0.00 0.00 69 1017.0
20260831182704 88 337 3.0 6.0 0.00 0.00 0.00 72 1017.0
20260831182205 88 15 3.0 7.0 0.00 0.00 0.00 74 1017.0
20260831181704 87 352 2.0 3.0 0.00 0.00 0.00 73 1017.0
20260831181204 87 347 3.0 9.0 0.00 0.00 0.00 75 1017.0
20260831180205 87 334 2.0 8.0 0.00 0.00 0.00 72 1017.1
20260831175704 87 16 2.0 10.0 0.00 0.00 0.00 74 1017.2
20260831175204 87 69 6.0 10.0 0.00 0.00 0.00 73 1017.2
20260831174704 87 56 2.0 5.0 0.00 0.00 0.00 73 1017.2
20260831173705 86 28 3.0 6.0 0.00 0.00 0.00 75 1017.2
20260831173204 86 354 2.0 6.0 0.00 0.00 0.00 76 1017.2
20260831172704 86 7 2.0 6.0 0.00 0.00 0.00 74 1017.3
20260831172204 86 49 2.0 6.0 0.00 0.00 0.00 76 1017.3
20260831171205 86 32 3.0 5.0 0.00 0.00 0.00 77 1017.3
20260831170704 86 304 2.0 3.0 0.00 0.00 0.00 73 1017.4
20260831170204 86 358 3.0 6.0 0.00 0.00 0.00 73 1017.5
20260831165704 87 21 4.0 8.0 0.00 0.00 0.00 72 1017.5
20260831165204 87 14 1.0 3.0 0.00 0.00 0.00 70 1017.5
20260831164704 87 77 1.0 3.0 0.00 0.00 0.00 69 1017.5
20260831164204 87 147 1.0 3.0 0.00 0.00 0.00 70 1017.4
20260831163704 87 43 2.0 6.0 0.00 0.00 0.00 70 1017.4
20260831163205 87 61 3.0 7.0 0.00 0.00 0.00 71 1017.4
20260831162204 87 48 3.0 6.0 0.00 0.00 0.00 74 1017.5
20260831161704 86 54 4.0 7.0 0.00 0.00 0.00 74 1017.5
20260831160704 86 46 3.0 8.0 0.00 0.00 0.00 75 1017.6
20260831160204 86 106 5.0 7.0 0.00 0.00 0.00 76 1017.6
20260831155704 85 79 5.0 8.0 0.00 0.00 0.00 75 1017.6
20260831155205 85 73 2.0 6.0 0.00 0.00 0.00 76 1017.7
20260831154204 85 28 4.0 10.0 0.00 0.00 0.00 77 1017.7
20260831153704 85 84 3.0 9.0 0.00 0.00 0.00 77 1017.8
20260831153204 85 53 3.0 9.0 0.00 0.00 0.00 76 1017.7
20260831152204 84 62 6.0 10.0 0.00 0.00 0.00 78 1017.6
20260831151704 84 67 7.0 10.0 0.00 0.00 0.00 79 1017.5
20260831151204 85 82 6.0 10.0 0.00 0.00 0.00 78 1017.5
20260831150704 85 57 6.0 10.0 0.00 0.00 0.00 78 1017.5
20260831150205 84 61 6.0 12.0 0.00 0.00 0.00 80 1017.5
20260831145704 84 108 6.0 12.0 0.00 0.00 0.00 79 1017.6
20260831145204 84 85 8.0 13.0 0.00 0.00 0.00 80 1017.6
20260831144204 83 89 7.0 12.0 0.00 0.00 0.00 80 1017.6
20260831143705 83 75 6.0 10.0 0.00 0.00 0.00 80 1017.6